YO6IKB-10 Weather Reports


time (UTC)temp
F
wind
direction
speed
knots
gust
knots
rain 1hr
in
rain 24hr
in
rain mn
in
humidity
%
barometer
mb
20260509224405 53 315 0.0 2.6 0.12 0.61 0.00 92 1011.9
20260509223905 53 315 0.9 3.5 0.12 0.61 0.00 92 1011.9
20260509223405 53 315 0.9 2.6 0.10 0.59 0.00 92 1012.0
20260509222904 53 315 1.7 3.5 0.12 0.59 0.00 92 1012.0
20260509222404 53 292 2.6 5.2 0.08 0.55 0.00 92 1012.0
20260509221904 53 292 1.7 5.2 0.08 0.55 0.00 92 1011.9
20260509221403 53 315 1.7 2.6 0.04 0.50 0.00 92 1011.9
20260509220903 53 315 2.6 2.6 0.06 0.50 0.00 91 1011.9
20260509220403 53 315 0.9 3.5 0.06 0.50 0.00 91 1011.9
20260509215903 53 225 0.0 4.3 0.06 0.48 0.00 91 1012.0
20260509215402 53 202 3.5 6.1 0.06 0.48 0.00 91 1012.0
20260509214902 53 292 0.0 1.7 0.06 0.48 0.00 91 1012.0
20260509214402 53 292 0.9 1.7 0.06 0.48 0.00 91 1012.0
20260509213901 53 292 1.7 1.7 0.06 0.48 0.00 91 1011.9
20260509213401 53 292 1.7 2.6 0.04 0.46 0.00 91 1012.0
20260509212901 53 292 1.7 1.7 0.06 0.48 0.00 91 1012.0
20260509212400 53 292 0.0 2.6 0.06 0.48 0.00 91 1012.1
20260509211900 53 292 0.0 3.5 0.08 0.48 0.00 91 1012.1
20260509211400 53 292 0.0 2.6 0.08 0.48 0.00 91 1012.0
20260509210900 53 292 2.6 2.6 0.06 0.46 0.00 91 1012.1
20260509210359 53 292 1.7 4.3 0.06 0.46 0.00 91 1012.1
20260509205859 53 292 0.9 3.5 0.04 0.44 0.00 91 1012.0
20260509205359 53 292 2.6 5.2 0.06 0.44 0.00 91 1012.1
20260509204858 53 292 0.0 5.2 0.06 0.44 0.00 91 1012.0
20260509204358 53 292 5.2 5.2 0.08 0.44 0.00 91 1012.1
20260509203858 53 292 0.0 3.5 0.08 0.44 0.00 91 1012.0
20260509203358 53 292 0.9 3.5 0.08 0.42 0.00 91 1012.0
20260509202857 54 292 1.7 7.0 0.08 0.44 0.00 91 1012.0
20260509202357 54 292 0.9 4.3 0.08 0.44 0.00 91 1012.1
20260509201857 54 292 2.6 8.7 0.06 0.42 0.00 91 1012.0
20260509201356 54 247 0.9 6.1 0.06 0.42 0.00 91 1011.9
20260509200856 54 225 2.6 4.3 0.06 0.42 0.00 91 1011.9
20260509200356 54 292 0.0 3.5 0.08 0.42 0.00 91 1011.9
20260509195856 54 292 0.9 3.5 0.06 0.40 0.00 91 1011.9
20260509195355 54 315 0.0 2.6 0.08 0.40 0.00 91 1011.9
20260509194855 55 315 0.0 1.7 0.08 0.40 0.00 91 1011.9
20260509194355 55 315 0.0 3.5 0.06 0.38 0.00 91 1011.9
20260509193854 55 0 1.7 3.5 0.06 0.38 0.00 91 1011.9
20260509193354 55 22 1.7 5.2 0.04 0.36 0.00 90 1011.8
20260509192854 55 0 1.7 2.6 0.04 0.38 0.00 90 1011.8
20260509192353 55 0 0.9 2.6 0.04 0.38 0.00 100 1011.7
20260509191853 55 0 0.9 2.6 0.04 0.38 0.00 91 1011.6
20260509191353 56 337 0.9 2.6 0.04 0.38 0.00 91 1011.7
20260509190853 56 0 0.9 2.6 0.04 0.38 0.00 91 1011.7
20260509190352 56 0 0.9 3.5 0.02 0.36 0.00 91 1011.6
20260509185852 56 337 3.5 3.5 0.00 0.34 0.00 90 1011.7
20260509185352 56 337 1.7 2.6 0.00 0.34 0.00 90 1011.6
20260509184851 56 0 0.9 4.3 0.00 0.34 0.00 90 1011.4
20260509184351 56 337 1.7 3.5 0.00 0.34 0.00 90 1011.5
20260509183851 57 292 3.5 3.5 0.00 0.34 0.00 90 1011.4
20260509183351 57 292 1.7 1.7 0.00 0.34 0.00 90 1011.4
20260509182850 57 292 0.9 2.6 0.00 0.36 0.00 90 1011.3
20260509182350 57 292 1.7 1.7 0.00 0.36 0.00 90 1011.3
20260509181850 57 292 0.9 3.5 0.00 0.36 0.00 90 1011.3
20260509181349 57 292 1.7 2.6 0.00 0.36 0.00 90 1011.3
20260509180849 57 292 0.0 3.5 0.00 0.36 0.00 90 1011.1
20260509180349 57 315 2.6 2.6 0.00 0.36 0.00 90 1011.1
20260509175848 57 292 0.9 1.7 0.00 0.36 0.00 90 1011.0
20260509175348 57 292 1.7 1.7 0.00 0.36 0.00 90 1011.0
20260509174848 57 292 1.7 1.7 0.00 0.36 0.00 90 1010.9
20260509174348 57 292 1.7 1.7 0.00 0.36 0.00 90 1010.8
20260509173847 57 315 1.7 1.7 0.00 0.36 0.00 90 1010.9
20260509173347 57 315 0.9 1.7 0.00 0.36 0.00 90 1010.8
20260509172847 57 315 0.9 2.6 0.00 0.36 0.00 90 1010.8
20260509172346 57 315 0.9 1.7 0.00 0.36 0.00 89 1010.8
20260509171846 57 315 0.0 3.5 0.00 0.36 0.00 89 1010.8
20260509171346 57 337 0.0 1.7 0.00 0.36 0.00 89 1010.7
20260509170846 57 337 0.0 1.7 0.00 0.36 0.00 89 1010.7
20260509170345 57 337 0.0 0.9 0.00 0.36 0.00 89 1010.6
20260509165845 57 337 0.0 0.9 0.00 0.36 0.00 89 1010.5
20260509165345 57 337 0.9 2.6 0.00 0.36 0.00 89 1010.5
20260509164844 57 337 0.9 2.6 0.00 0.36 0.00 89 1010.5
20260509164344 57 0 0.9 1.7 0.00 0.36 0.00 89 1010.4
20260509163844 57 22 0.0 1.7 0.00 0.36 0.00 89 1010.4
20260509163343 58 22 0.9 0.9 0.00 0.36 0.00 89 1010.3
20260509162843 58 22 0.9 0.9 0.00 0.36 0.00 89 1010.2
20260509162343 57 22 0.0 0.9 0.00 0.36 0.00 89 1010.2
20260509161843 57 22 0.9 0.9 0.00 0.36 0.00 89 1010.2
20260509161342 57 45 0.0 0.9 0.00 0.36 0.00 89 1010.2
20260509160842 57 22 0.9 1.7 0.00 0.36 0.00 89 1010.2
20260509160342 57 22 0.0 1.7 0.00 0.36 0.00 89 1010.2
20260509155841 58 22 1.7 1.7 0.00 0.36 0.00 89 1010.2
20260509155341 58 45 0.0 0.9 0.00 0.36 0.00 89 1010.1
20260509154841 58 45 0.0 1.7 0.00 0.36 0.00 89 1010.1
20260509154341 58 45 0.9 1.7 0.00 0.36 0.00 89 1010.0
20260509153840 58 45 1.7 1.7 0.00 0.36 0.00 89 1009.9
20260509153340 58 45 0.0 0.0 0.00 0.36 0.00 89 1010.0
20260509152840 57 45 0.0 0.0 0.00 0.36 0.00 89 1010.0
20260509152339 57 45 0.0 2.6 0.00 0.36 0.00 89 1010.0
20260509151839 58 67 0.9 4.3 0.00 0.36 0.00 88 1010.0
20260509151339 58 67 0.9 2.6 0.02 0.36 0.00 88 1010.0
20260509150838 58 67 0.9 3.5 0.02 0.36 0.00 88 1010.0
20260509150338 58 22 1.7 3.5 0.02 0.36 0.00 88 1010.0
20260509145838 58 67 2.6 3.5 0.02 0.36 0.00 88 1009.8
20260509145338 58 337 1.7 3.5 0.02 0.36 0.00 88 1009.8
20260509144837 58 45 1.7 4.3 0.02 0.36 0.00 88 1009.9
20260509144337 58 67 0.9 5.2 0.02 0.36 0.00 89 1009.9
20260509143837 58 22 3.5 3.5 0.02 0.36 0.00 89 1009.9
20260509143336 58 0 0.9 1.7 0.02 0.36 0.00 89 1009.9
20260509142836 57 22 1.7 2.6 0.02 0.36 0.00 88 1009.9
20260509142336 57 45 0.9 2.6 0.02 0.36 0.00 88 1009.9
20260509141836 57 45 0.9 3.5 0.02 0.36 0.00 88 1009.9
20260509141335 58 45 0.9 3.5 0.00 0.34 0.00 87 1009.9
20260509140835 58 45 2.6 5.2 0.00 0.34 0.00 87 1009.9
20260509140335 58 45 2.6 5.2 0.00 0.34 0.00 87 1009.8
20260509135834 58 67 2.6 7.0 0.00 0.34 0.00 87 1009.6
20260509135334 59 45 3.5 6.1 0.00 0.34 0.00 87 1009.6
20260509134834 59 45 6.1 6.1 0.00 0.34 0.00 88 1009.7
20260509134333 59 45 6.1 7.0 0.00 0.34 0.00 88 1009.6
20260509133833 58 45 1.7 6.1 0.00 0.34 0.00 89 1009.6
20260509133333 58 22 0.0 3.5 0.00 0.34 0.00 89 1009.6
20260509132833 58 0 0.0 3.5 0.00 0.34 0.00 89 1009.6
20260509132332 58 45 1.7 5.2 0.00 0.34 0.00 89 1009.5
20260509131832 58 45 0.9 3.5 0.00 0.34 0.00 89 1009.7
20260509131332 58 337 0.0 5.2 0.02 0.34 0.00 89 1009.7
20260509130831 58 337 1.7 3.5 0.02 0.34 0.00 89 1009.7
20260509130331 58 337 0.0 4.3 0.02 0.34 0.00 89 1009.6
20260509125831 58 0 1.7 5.2 0.04 0.34 0.00 90 1009.8
20260509125331 58 22 0.9 5.2 0.14 0.34 0.00 90 1009.8
20260509124830 58 22 2.6 7.0 0.14 0.34 0.00 90 1009.9
20260509124330 58 45 0.9 2.6 0.16 0.34 0.00 90 1009.9
20260509123830 58 45 0.0 5.2 0.16 0.34 0.00 90 1010.0
20260509123329 58 45 1.7 4.3 0.18 0.34 0.00 90 1010.1
20260509122829 57 45 1.7 4.3 0.18 0.34 0.00 90 1010.0
20260509122329 58 45 3.5 4.3 0.18 0.34 0.00 89 1010.2
20260509121828 57 0 1.7 1.7 0.18 0.34 0.00 89 1010.1
20260509121328 57 0 1.7 2.6 0.16 0.32 0.00 89 1010.1
20260509120828 57 337 0.0 2.6 0.16 0.32 0.00 89 1010.3
20260509120328 57 337 2.6 3.5 0.14 0.30 0.00 89 1010.5
20260509115827 58 337 0.9 5.2 0.10 0.26 0.00 89 1010.4
20260509115327 58 22 1.7 7.0 0.04 0.20 0.00 88 1010.6
20260509114827 58 22 4.3 6.1 0.02 0.18 0.00 88 1010.5
20260509114326 59 22 2.6 6.1 0.02 0.18 0.00 88 1010.5
20260509113826 59 0 3.5 3.5 0.00 0.16 0.00 88 1010.5
20260509113326 59 45 0.9 7.0 0.02 0.16 0.00 87 1010.4
20260509112826 59 45 3.5 5.2 0.02 0.22 0.00 88 1010.4
20260509112325 59 22 2.6 5.2 0.02 0.22 0.00 88 1010.4
20260509111825 59 22 3.5 4.3 0.02 0.22 0.00 88 1010.4
20260509111325 59 45 0.9 4.3 0.02 0.22 0.00 88 1010.3
20260509110824 59 45 1.7 4.3 0.02 0.22 0.00 88 1010.3
20260509110324 59 22 1.7 4.3 0.02 0.22 0.00 88 1010.3
20260509105824 59 22 1.7 3.5 0.02 0.22 0.00 89 1010.4
20260509105323 59 22 0.0 1.7 0.02 0.22 0.00 88 1010.4
20260509104823 59 45 0.0 7.0 0.04 0.22 0.00 88 1010.4
20260509104323 59 315 7.0 7.0 0.04 0.22 0.00 88 1010.3
20260509103823 59 45 0.9 4.3 0.02 0.20 0.00 88 1010.4
20260509103322 59 45 3.5 6.1 0.02 0.20 0.00 89 1010.5
20260509102822 59 0 0.0 2.6 0.04 0.20 0.00 90 1010.5
20260509102322 59 0 1.7 2.6 0.04 0.20 0.00 90 1010.6
20260509101821 59 22 0.9 1.7 0.04 0.20 0.00 90 1010.7
20260509101321 58 22 1.7 3.5 0.04 0.20 0.00 90 1010.7
20260509100821 58 45 1.7 3.5 0.04 0.20 0.00 90 1010.8
20260509100321 58 45 2.6 5.2 0.04 0.20 0.00 89 1010.8
20260509095820 57 67 0.0 5.2 0.06 0.20 0.00 89 1010.9
20260509095320 57 45 3.5 5.2 0.06 0.20 0.00 89 1010.9
20260509094820 57 45 3.5 7.0 0.04 0.18 0.00 89 1010.9
20260509094319 57 45 3.5 3.5 0.04 0.18 0.00 89 1010.9
20260509093819 57 45 0.9 4.3 0.04 0.18 0.00 89 1010.9
20260509093319 57 67 3.5 4.3 0.04 0.18 0.00 89 1010.9
20260509092818 57 45 1.7 3.5 0.02 0.16 0.00 89 1010.9
20260509092318 57 22 2.6 6.1 0.02 0.16 0.00 88 1011.0
20260509091818 57 45 0.9 2.6 0.02 0.16 0.00 88 1011.0
20260509091318 58 22 0.0 5.2 0.02 0.16 0.00 87 1011.1
20260509090817 58 0 5.2 5.2 0.02 0.16 0.00 87 1011.1
20260509090317 58 0 0.0 3.5 0.02 0.16 0.00 87 1011.0
20260509085817 59 45 1.7 4.3 0.00 0.14 0.00 87 1011.0
20260509085316 59 0 0.9 5.2 0.00 0.14 0.00 87 1011.1
20260509084816 59 337 5.2 6.1 0.00 0.14 0.00 87 1011.1
20260509084316 59 22 1.7 3.5 0.00 0.14 0.00 88 1011.1
20260509083816 58 0 1.7 2.6 0.00 0.14 0.00 88 1011.1
20260509083315 58 45 0.9 2.6 0.00 0.14 0.00 88 1011.1
20260509082815 58 45 0.9 4.3 0.00 0.14 0.00 88 1011.1
20260509082315 58 45 0.9 5.2 0.00 0.14 0.00 88 1011.1
20260509081814 58 67 2.6 6.1 0.00 0.14 0.00 88 1011.2
20260509081314 58 45 3.5 3.5 0.00 0.14 0.00 88 1011.2
20260509080814 58 45 1.7 6.1 0.00 0.14 0.00 87 1011.2
20260509080314 58 45 2.6 5.2 0.00 0.14 0.00 87 1011.2
20260509075813 58 45 1.7 3.5 0.00 0.14 0.00 86 1011.2
20260509075313 58 67 3.5 4.3 0.00 0.14 0.00 86 1011.3
20260509074813 58 67 1.7 5.2 0.00 0.14 0.00 86 1011.2
20260509074312 58 45 2.6 7.0 0.00 0.14 0.00 86 1011.2
20260509073812 58 45 4.3 9.6 0.00 0.14 0.00 86 1011.2
20260509073312 58 45 2.6 5.2 0.00 0.14 0.00 86 1011.1
20260509072811 58 45 1.7 4.3 0.00 0.14 0.00 86 1011.1
20260509072311 58 67 2.6 4.3 0.00 0.14 0.00 85 1011.1
20260509071811 58 67 4.3 5.2 0.00 0.14 0.00 85 1011.1
20260509071311 58 67 2.6 4.3 0.00 0.14 0.00 85 1011.2
20260509070810 58 45 3.5 4.3 0.00 0.14 0.00 85 1011.2
20260509070310 58 45 0.9 4.3 0.00 0.14 0.00 84 1011.3
20260509065810 58 45 0.9 2.6 0.00 0.14 0.00 84 1011.3
20260509065309 58 45 1.7 4.3 0.00 0.14 0.00 84 1011.3
20260509064809 58 90 1.7 3.5 0.00 0.14 0.00 84 1011.2
20260509064309 58 67 0.0 1.7 0.00 0.14 0.00 84 1011.2
20260509063808 58 67 0.9 2.6 0.00 0.14 0.00 84 1011.2
20260509063308 58 67 0.9 1.7 0.00 0.14 0.00 83 1011.2
20260509062808 59 67 0.0 1.7 0.00 0.14 0.00 83 1011.2
20260509062308 59 67 0.9 1.7 0.00 0.14 0.00 83 1011.1
20260509061807 59 67 0.0 2.6 0.00 0.14 0.00 83 1011.2
20260509061307 59 67 0.0 1.7 0.00 0.14 0.00 83 1011.2
20260509060807 59 67 0.9 1.7 0.00 0.14 0.00 83 1011.2
20260509060306 60 67 0.0 1.7 0.00 0.14 0.00 83 1011.2
20260509055806 60 67 0.0 0.0 0.00 0.14 0.00 84 1011.2
20260509055307 60 67 0.0 1.7 0.00 0.14 0.00 84 1011.2
20260509054806 60 67 0.0 0.9 0.00 0.14 0.00 84 1011.1
20260509054305 59 67 0.9 1.7 0.00 0.14 0.00 84 1011.1
20260509053805 59 67 0.0 2.6 0.00 0.14 0.00 85 1011.1
20260509053305 59 67 0.0 0.0 0.00 0.14 0.00 85 1011.1
20260509052804 59 67 0.0 0.0 0.00 0.14 0.00 85 1011.1
20260509052307 59 67 0.0 0.0 0.00 0.14 0.00 84 1011.1
20260509051804 59 67 0.0 0.0 0.00 0.14 0.00 84 1011.1
20260509051304 59 67 0.0 0.0 0.00 0.14 0.00 84 1011.1
20260509050803 59 67 0.0 1.7 0.00 0.14 0.00 84 1011.1
20260509050303 59 67 0.9 1.7 0.00 0.14 0.00 84 1011.1
20260509045803 59 67 0.0 0.0 0.00 0.14 0.00 84 1011.2
20260509045306 59 67 0.0 0.9 0.00 0.14 0.00 85 1011.2
20260509044802 58 67 0.9 1.7 0.00 0.14 0.00 85 1011.2
20260509044302 58 67 0.0 0.9 0.00 0.14 0.00 85 1011.2
20260509043801 58 67 0.0 1.7 0.00 0.14 0.00 85 1011.2
20260509043301 58 67 1.7 1.7 0.00 0.14 0.00 85 1011.3
20260509042801 58 67 0.9 1.7 0.00 0.14 0.00 85 1011.2
20260509042301 57 67 0.0 0.9 0.00 0.14 0.00 86 1011.2
20260509041800 57 67 0.0 0.0 0.00 0.14 0.00 86 1011.2
20260509041300 57 67 0.0 0.9 0.00 0.14 0.00 86 1011.1
20260509040800 57 67 0.0 1.7 0.00 0.14 0.00 86 1011.1
20260509040259 57 67 0.9 0.9 0.00 0.14 0.00 86 1011.0
20260509035759 57 67 0.0 1.7 0.00 0.14 0.00 86 1011.1
20260509035259 57 67 0.9 2.6 0.00 0.14 0.00 86 1011.0
20260509034759 57 67 0.0 0.9 0.00 0.14 0.00 86 1011.1
20260509034258 57 67 0.0 0.9 0.00 0.14 0.00 86 1011.0
20260509033758 57 67 0.0 1.7 0.00 0.14 0.00 86 1010.9
20260509033258 57 67 0.0 1.7 0.00 0.14 0.00 86 1010.9
20260509032757 57 67 0.0 0.9 0.00 0.14 0.00 86 1011.0
20260509032257 56 67 0.0 1.7 0.00 0.14 0.00 86 1011.0
20260509031757 56 67 0.0 0.0 0.00 0.14 0.00 86 1011.0
20260509031256 56 67 0.0 0.9 0.00 0.14 0.00 86 1011.0
20260509030756 56 67 0.0 0.0 0.00 0.14 0.00 86 1011.0
20260509030256 56 67 0.0 1.7 0.00 0.14 0.00 86 1011.0
20260509025756 56 67 0.9 1.7 0.00 0.14 0.00 86 1010.9
20260509025255 56 67 0.0 0.0 0.00 0.14 0.00 86 1010.9
20260509024755 56 67 0.0 0.9 0.00 0.14 0.00 86 1010.9
20260509024255 56 67 0.9 1.7 0.00 0.14 0.00 86 1010.9
20260509023754 56 67 0.0 0.9 0.00 0.14 0.00 85 1010.9
20260509023254 56 67 0.0 0.0 0.00 0.14 0.00 85 1010.9
20260509022754 56 67 0.0 0.0 0.00 0.14 0.00 85 1010.8
20260509022254 56 67 0.0 0.0 0.00 0.14 0.00 85 1010.9
20260509021753 56 67 0.0 0.9 0.00 0.14 0.00 85 1010.9
20260509021253 56 67 0.0 0.9 0.00 0.14 0.00 85 1010.9
20260509020753 56 67 0.0 1.7 0.00 0.14 0.00 85 1010.8
20260509020252 56 67 0.0 0.0 0.00 0.14 0.00 85 1010.9
20260509015752 56 67 0.0 0.0 0.00 0.14 0.00 85 1010.9
20260509015252 56 67 0.0 0.0 0.00 0.14 0.00 86 1010.9
20260509014751 56 67 0.0 0.0 0.00 0.14 0.00 86 1011.0
20260509014251 56 67 0.0 0.0 0.00 0.14 0.00 86 1011.0
20260509013751 56 67 0.0 0.0 0.00 0.14 0.00 86 1011.1
20260509013251 56 67 0.0 0.0 0.00 0.14 0.00 85 1011.0
20260509012750 56 67 0.0 0.0 0.00 0.14 0.00 85 1011.1
20260509012250 56 67 0.0 0.9 0.00 0.14 0.00 85 1011.2
20260509011750 56 67 0.0 0.0 0.00 0.14 0.00 85 1011.1
20260509011250 56 67 0.0 0.0 0.00 0.14 0.00 85 1011.1
20260509010749 56 67 0.0 0.9 0.00 0.14 0.00 86 1011.2
20260509010249 56 67 0.9 1.7 0.00 0.14 0.00 86 1011.2
20260509005749 56 67 1.7 1.7 0.00 0.14 0.00 86 1011.2
20260509005248 57 67 0.0 0.9 0.00 0.14 0.00 86 1011.2
20260509004748 57 67 0.0 0.9 0.00 0.14 0.00 86 1011.2
20260509004248 57 67 0.0 1.7 0.00 0.14 0.00 86 1011.2
20260509003747 57 67 0.0 0.9 0.00 0.14 0.00 86 1011.3
20260509003247 57 67 0.0 1.7 0.00 0.14 0.00 86 1011.2
20260509002747 57 90 0.0 1.7 0.00 0.16 0.00 86 1011.2
20260509002246 57 90 0.0 2.6 0.00 0.16 0.00 86 1011.2
20260509001746 57 90 1.7 2.6 0.00 0.16 0.00 87 1011.2
20260509001246 57 90 2.6 3.5 0.00 0.16 0.00 87 1011.3
20260509000746 57 90 1.7 1.7 0.00 0.16 0.00 87 1011.2
20260509000245 57 67 0.9 1.7 0.00 0.16 0.00 87 1011.3
20260508235745 57 67 1.7 2.6 0.00 0.16 0.00 87 1011.3
20260508235245 57 112 0.0 1.7 0.00 0.16 0.00 87 1011.2
20260508234744 57 112 1.7 2.6 0.00 0.16 0.00 87 1011.2
20260508234244 57 135 0.0 0.9 0.00 0.16 0.00 87 1011.3
20260508233744 57 135 0.0 0.0 0.00 0.16 0.00 87 1011.2
20260508233244 57 135 0.0 1.7 0.00 0.16 0.00 87 1011.2
20260508232743 57 135 0.0 1.7 0.00 0.16 0.00 87 1011.2
20260508232243 57 135 0.0 1.7 0.00 0.16 0.00 87 1011.2
20260508231743 57 135 0.0 1.7 0.00 0.16 0.00 86 1011.2
20260508231242 57 202 0.0 1.7 0.00 0.16 0.00 86 1011.3
20260508230742 57 202 0.9 0.9 0.00 0.16 0.00 86 1011.4
20260508230242 57 202 0.0 0.0 0.02 0.16 0.00 86 1011.3
20260508225742 57 202 0.0 0.0 0.02 0.16 0.00 86 1011.4
20260508225241 57 202 0.0 0.0 0.02 0.16 0.00 86 1011.4
20260508224741 57 202 0.0 0.0 0.02 0.16 0.00 86 1011.4